Location: Bluff Heights
(33.7692°N, 118.1592°W)
Time: 02:47:27
(UTC+00:00)

Vanguard 1 Rocket - Pass Details

Date: 03 October 2021
Orbit: 650 x 4226 km, 34.3° (Epoch: 22 October)

Event Time Altitude Azimuth Distance (km) Brightness Sun altitude
Rises 03:50:35 0° 266° (W) 3,024 11.1 -28.8°
Reaches altitude 10° 03:52:52 10° 267° (W) 2,048 10.0 -29.2°
Enters shadow 03:55:53 46° 271° (W) 891 7.6 -29.8°
